www.pogodaiklimat.ru

Погода и климат >> Архив погоды >> Украина >> Новоднестровск


ПОГОДА в Новоднестровске

  • Прогноз погоды в Новоднестровске
  • Монитор погоды в Новоднестровске
  • Климат города

АРХИВ ПОГОДЫ в Новоднестровске

Время (UTC), дата Ветер
(напр.,м/с)
 
Видим.   Явления Облачность Т
(С)
Тd
(С)
f
(%)
Тe
(С)
Тes
(С)
Комфортность P
(гПа)
Po
(гПа)
Тmin
(С)
Tmax
(С)
R
(мм)
R24
(мм)
S
(см)
00 20.09 В 3 н/о 9 баллов +14.5 +7.3 62 +14 1013.8 985.3
03 20.09 В 3 н/о 8 баллов +13.9 +6.7 62 +13 +13 1012.6 984.0
06 20.09 В 2 н/о 7 баллов +14.6 +7.9 64 +14 +15 1012.5 984.0
09 20.09 ЮВ 2 н/о 3 балла +20.0 +8.6 48 +22 +28 комфорт 1012.0 984.0
12 20.09 В 2 н/о 9 баллов +20.8 +9.4 48 +23 +24 комфорт 1010.5 982.7
15 20.09 С 2 н/о 5 баллов +19.7 +10.9 57 +22 1009.2 981.3
18 20.09 З 2 н/о в посл. час гроза н/о +17.1 +12.6 75 +17 1009.5 981.3 0.0
21 20.09 С 1 н/о 10 баллов +16.2 +13.3 83 +17 1006.9 978.7
00 21.09 СВ 2 10 км в посл. час ливневой дождь {гроза} 10/10 660 м
[Cb cap]
+14.6 +13.7 94 +14 +14 1007.0 978.7 10.0
03 21.09 ЮВ 1 н/о 5 баллов +13.9 +13.3 96 +14 +14 1007.1 978.7
06 21.09 СЗ 2 н/о дымка 5 баллов +14.4 +13.8 96 +14 1008.4 980.0 10.0
09 21.09 штиль 0 дымка 5 баллов +14.3 93 1008.5 980.0
12 21.09 СЗ 1 10 км {ливн. осадки} 9/6 700 м
[Cb cap Ac und]
+17.8 +14.9 83 +19 +21 1007.8 979.8 0.0
15 21.09 СВ 1 н/о 8 баллов +17.9 +15.7 87 +19 +19 1006.7 978.7
18 21.09 СЗ 2 н/о дымка 8 баллов +16.0 +14.4 90 +16 1009.6 981.3 0.5
21 21.09 З 2 н/о дымка 5 баллов +15.2 +13.6 90 +15 1009.7 981.3
00 22.09 СЗ 2 н/о дымка 10 баллов +14.7 +13.6 93 +14 1011.1 982.7
03 22.09 СЗ 3 н/о дымка 10 баллов +14.5 +13.4 93 +14 1011.2 982.7
06 22.09 З 3 н/о ливневой дождь н/о +14.4 +13.9 97 +13 1011.2 982.7 3.0
09 22.09 СЗ 2 н/о ливневой дождь н/о +14.0 +13.5 97 +13 1012.5 984.0
12 22.09 С 3 4000 м гроза, ливневой дождь 10/10 360 м
[Cb cap]
+13.3 +12.6 96 +12 +12 1010.9 982.3 28.0
15 22.09 СЗ 3 сильная гроза, ливневой дождь н/о +12.8 96 1010.1 981.5
18 22.09 С 2 н/о в посл. час ливневой дождь н/о +13.9 +13.3 96 +13 1009.8 981.3 45.0
21 22.09 ЮВ 1 н/о дымка 7 баллов +13.8 +13.2 96 +14 1009.8 981.3
00 23.09 ЮВ 3 н/о дымка 10 баллов +13.4 +12.5 94 +12 1012.6 984.0
03 23.09 ЮВ 4 дымка 9 баллов 91 985.3
06 23.09 ЮВ 3 4000 м дымка 10/10 540 м
[Cb cap]
+12.6 +11.1 91 +11 +11 1016.0 987.2 +12.1
09 23.09 ЮВ 3 8 баллов 71 989.3
12 23.09 ЮВ 3 н/о 7 баллов +16.9 +10.7 67 +17 +18 1017.7 989.3
15 23.09 В 2 9 баллов 69 990.7
18 23.09 штиль 0 н/о 9 баллов +15.3 +11.9 80 +15 +15 1017.9 989.3
21 23.09 В 2 н/о слабый ливневой дождь н/о +13.7 +11.9 89 +13 1019.5 990.7
00 24.09 В 2 4000 м дымка {ливн. осадки} 10/6 700 м
[Cb calv Ac und]
+13.3 +12.0 92 +13 +13 1019.0 990.2 6.0
03 24.09 В 2 дымка 5 баллов 92 1001.3
06 24.09 СВ 1 дымка 10 баллов 92 990.7 6.0
09 24.09 В 2 дымка 10 баллов 91 990.7
12 24.09 ЮВ 2 4000 м слабый ливневой дождь 10/10 660 м
[Cb cap]
+13.2 +12.7 97 +12 +12 1020.4 991.5 7.0
15 24.09 ЮВ 2 сильный ливневой дождь н/о 97 992.0
18 24.09 СВ 1 дымка 9 баллов 96 993.3 13.0
21 24.09 СВ 1 н/о дымка 2 балла +10.5 +9.9 96 +10 1023.9 994.7
00 25.09 штиль 0 н/о дымка ясно +9.0 +8.5 97 +8 1024.1 994.7
03 25.09 С 1 н/о дымка ясно +9.4 +8.8 96 +9 1024.0 994.7
06 25.09 СВ 1 н/о туман н/о +11.1 +11.1 100 +11 1025.2 996.0
09 25.09 В 2 дымка 10 баллов 96 997.3
12 25.09 В 2 н/о 9 баллов +18.2 +12.2 68 +19 1025.8 997.3
15 25.09 штиль 0 9 баллов 65 998.7
18 25.09 штиль 0 н/о 6 баллов +15.6 +10.1 70 +15 +15 1027.5 998.7
21 25.09 С 1 7 баллов 79 998.7
00 26.09 СВ 1 н/о 6 баллов +14.2 +10.8 80 +15 +15 1027.7 998.7
03 26.09 В 3 3 балла 81 1000.0
06 26.09 СВ 1 5 баллов 71 1000.0
09 26.09 В 2 н/о 7 баллов +16.0 +7.2 56 +16 +18 1030.1 1001.3
12 26.09 В 3 н/о 7 баллов +17.6 +5.5 45 +18 +19 1028.7 1000.0
15 26.09 СВ 2 н/о 8 баллов +16.8 +6.0 49 +17 +17 1028.7 1000.0
18 26.09 В 2 н/о 7 баллов +13.7 +5.8 59 +13 +13 1030.4 1001.3

 

Местоположение метеостанции Новоднестровск (Черновицкая область, Украина): широта 48.57 долгота 27.45 высота над уровнем моря 241 м.

В архиве по умолчанию представлена погода в Новоднестровске за последнюю неделю. Архивные данные за месяц целиком и за предыдущие месяцы, начиная с января 2011 года, Вы можете получить, выбрав интересующий диапазон дат из раскрывающегося списка и нажав кнопку "Ввод!".

Внимание! Время в таблицах - всемирное. Для получения местного времени необходимо прибавить поправку, которая в Новоднестровске равна 2 ч.

Смотрите также архив погоды в соседних городах и на ближайших метеорологических станциях:

Погода в Могилев-Подольском (Винницкая область, Украина) (28 км)
Погода в Новой Ушице (Хмельницкая область, Украина) (34 км)
Погода в Бричанах (Молдова) (37 км)
Погода в Каменец-Подольском (Хмельницкая область, Украина) (58 км)
Погода в Жмеринке (Винницкая область, Украина) (72 км)
Погода в Сороках (Молдова) (75 км)
Погода в Darabani (Румыния) (76 км)
Погода в Stanca Stefanesti (Румыния) (84 км)
Погода в Хмельнике (Винницкая область, Украина) (86 км)
Погода в Бельцах (Молдова) (95 км)

Пояснения к столбцам:

Ветер - указаны скорость ветра в м/с - средняя за 10 мин, порывы в срок и между сроками (в фигурных скобках) и направление, откуда дует ветер: С - северный, СВ - северо-восточный, В - восточный, ЮВ - юго-восточный, Ю - южный, ЮЗ - юго-западный, З - западный, СЗ - северо-западный.
Видимость - горизонтальная дальность видимости в метрах или километрах. При видимости от 1 до 10 км при отсутствии осадков обычно наблюдается дымка, при ухудшении видимости до 1 км и менее - туман. В сухую погоду видимость может ухудшаться дымом, пылью или мглою.
Явления - указаны атмосферные явления, наблюдавшиеся в срок или в последний час перед сроком; фигурными скобками обозначены явления, наблюдавшиеся между сроками (за 1-3 часа до срока); квадратными скобками обозначены град или гололедные отложения с указанием их диаметра в мм.
Облачность - указаны через наклонную черту общая и нижняя облачность в баллах и высота нижней границы облаков в метрах; квадратными скобками обозначены формы облаков: Ci - перистые, Cs - перисто-слоистые, Cc - перисто-кучевые, Ac - высококучевые, As - высокослоистые, Sc - слоисто-кучевые, Ns - слоисто-дождевые, Cu - кучевые, Cb - кучево-дождевые. Подробнее классификацию облаков см. в Атласе облаков (PDF).
T - Температура воздуха - температура, измеренная на высоте 2 м над землей.
Td - Температура точки росы - температура, при понижении до которой содержащийся в воздухе водяной пар достигнет насыщения.
f - Относительная влажность воздуха - влажноcть воздуха, измеренная на высоте 2 м над землей.
Te - Эффективная температура - температура, которую ощущает одетый по сезону человек в тени. Характеристика душности погоды. При расчете учитывается влияние влажности воздуха и скорости ветра на теплоощущения человека.
Tes - Эффективная температура на солнце - температура, которую ощущает человек, с поправкой на солнечный нагрев. Характеристика знойности погоды. Зависит от высоты солнца над горизонтом, облачности и скорости ветра. Ночью, в пасмурную погоду, а также при ветре 12 м/с и более поправка равна нулю.
P - Атмосферное давление - приведенное к уровню моря атмосферное давление.
Po - Атмосферное давление - измеренное на уровне метеостанции атмосферное давление.
Tmin - Минимальная температура - минимум температуры воздуха на высоте 2 м над землей.
Tmax - Максимальная температура - максимум температуры воздуха на высоте 2 м над землей.
R - Количество осадков - Количество выпавших осадков за период времени, мм. При наведении курсора мыши на число - период времени, за который выпало указанное количество осадков.
R24 - Количество осадков - Количество выпавших осадков за 24 часа, мм.
S - Снежный покров - Высота снежного покрова, см. При наведении курсора мыши на число - состояние снежного покрова и степень покрытия местности в баллах.